TimePST,TemperatureF,Dew PointF,Humidity,Sea Level PressureIn,VisibilityMPH,Wind Direction,Wind SpeedMPH,Gust SpeedMPH,PrecipitationIn,Events,Conditions,WindDirDegrees,DateUTC
12:52 AM,28.9,19.0,67,30.14,-9999.0,SW,4.6,-,N/A,,Unknown,220,2013-12-18 08:52:00
1:52 AM,30.9,19.9,64,30.12,-9999.0,SE,16.1,24.2,N/A,,Unknown,140,2013-12-18 09:52:00
2:52 AM,30.0,19.9,66,30.11,-9999.0,SE,17.3,-,N/A,,Unknown,140,2013-12-18 10:52:00
3:52 AM,30.0,19.9,66,30.11,-9999.0,SE,13.8,-,N/A,,Unknown,130,2013-12-18 11:52:00
4:52 AM,27.0,19.0,72,30.11,-9999.0,Variable,3.5,-,N/A,,Unknown,0,2013-12-18 12:52:00
5:21 AM,28.9,19.9,69,30.03,-9999.0,SE,16.1,-,N/A,,Unknown,140,2013-12-18 13:21:00
5:52 AM,28.9,19.9,69,30.09,-9999.0,SE,15.0,-,N/A,,Unknown,140,2013-12-18 13:52:00
6:52 AM,19.9,16.0,85,30.12,-9999.0,NE,5.8,-,N/A,,Unknown,40,2013-12-18 14:52:00
7:52 AM,19.9,16.0,85,30.11,-9999.0,Calm,Calm,-,N/A,,Unknown,0,2013-12-18 15:52:00
8:52 AM,34.0,21.9,61,30.06,-9999.0,SSE,10.4,-,N/A,,Unknown,150,2013-12-18 16:52:00
9:52 AM,36.0,21.9,57,30.04,-9999.0,Variable,5.8,-,N/A,,Unknown,0,2013-12-18 17:52:00
10:52 AM,37.9,21.9,53,30.01,-9999.0,South,8.1,-,N/A,,Unknown,170,2013-12-18 18:52:00
11:52 AM,45.0,23.0,42,29.95,-9999.0,Variable,3.5,-,N/A,,Unknown,0,2013-12-18 19:52:00
12:52 PM,46.9,24.1,41,29.89,-9999.0,SE,9.2,-,N/A,,Unknown,140,2013-12-18 20:52:00
1:52 PM,48.0,24.1,39,29.84,-9999.0,SSE,5.8,-,N/A,,Unknown,160,2013-12-18 21:52:00
2:52 PM,43.0,24.1,47,29.85,-9999.0,ESE,11.5,-,N/A,,Unknown,120,2013-12-18 22:52:00
3:52 PM,39.0,24.1,55,29.83,-9999.0,East,8.1,-,N/A,,Unknown,100,2013-12-18 23:52:00
4:52 PM,37.0,24.1,59,29.84,-9999.0,North,5.8,-,N/A,,Unknown,360,2013-12-19 00:52:00
5:52 PM,32.0,23.0,69,29.84,-9999.0,East,4.6,-,N/A,,Unknown,80,2013-12-19 01:52:00
6:52 PM,33.1,23.0,66,29.86,-9999.0,NE,8.1,-,N/A,,Unknown,50,2013-12-19 02:52:00
7:52 PM,34.0,23.0,64,29.87,-9999.0,NE,6.9,-,N/A,,Unknown,50,2013-12-19 03:52:00
8:52 PM,32.0,24.1,73,29.84,-9999.0,NE,11.5,-,N/A,,Unknown,50,2013-12-19 04:52:00
9:52 PM,30.0,27.0,88,29.84,-9999.0,NE,8.1,-,0.01,,Unknown,50,2013-12-19 05:52:00
10:52 PM,30.0,28.0,92,29.85,-9999.0,NNE,6.9,-,0.02,,Unknown,20,2013-12-19 06:52:00
11:52 PM,30.9,28.9,92,29.83,-9999.0,NNE,9.2,-,0.01,,Unknown,20,2013-12-19 07:52:00